Montague, CA

6:29 AM PST on January 22, 2017 (GMT -0800)
Siskiyou County

Weather History for KSIY - March, 2013

Change the Weather History Date:

Sunday, March 31, 2013

  Actual Average Record
Temperature  
Mean Temperature 53 °F 44 °F  
Max Temperature 57 °F 57 °F 77 °F (2002)
Min Temperature 48 °F 30 °F 11 °F (2008)
Degree Days  
Heating Degree Days 12 21  
Month to date heating degree days 619 684  
Since 1 July heating degree days 4359 4559  
Growing Degree Days 2 (Base 50)    
Moisture  
Dew Point 45 °F    
Average Humidity 78    
Maximum Humidity 86    
Minimum Humidity 61    
Precipitation  
Precipitation 0.36 in 0.08 in 1.23 in (1957)
Month to date precipitation 0.78 2.31  
Year to date precipitation 1.82 6.52  
Sea Level Pressure  
Sea Level Pressure 30.04 in    
Wind  
Wind Speed 4 mph (SSW)    
Max Wind Speed 15 mph    
Max Gust Speed 21 mph    
Visibility 9 miles    
Events Rain    
T = Trace of Precipitation, MM = Missing Value Source: NWS Daily Summary

Daily Weather History Graph

Daily Weather History Graph

Search for Another Location

Airport or City:

Trip Planner

Search our weather history database for the weather conditions in past years. The results will help you decide how hot, cold, wet, or windy it might be!

Date:

Astronomy

Mar. 31, 2013 Rise Set
Actual Time 6:53 AM PDT 7:34 PM PDT
Civil Twilight 6:25 AM PDT 8:02 PM PDT
Nautical Twilight 5:52 AM PDT 8:36 PM PDT
Astronomical Twilight 5:18 AM PDT 9:10 PM PDT
Moon No Moon Rise 9:42 AM PDT (3/31)
Length of Visible Light 13h 36m
Length of Day
12h 40m
Waning Gibbous, 76% of the Moon is Illuminated
Mar 31
Waning Gibbous
Apr 2
Last Quarter
Apr 10
New
Apr 18
First Quarter
Apr 25
Full

Hourly Weather History & Observations

Time (PDT) Temp. Dew Point Humidity Pressure Visibility Wind Dir Wind Speed Gust Speed Precip Events Conditions
12:53 AM 55.0 °F 44.1 °F 67% 30.01 in 10.0 mi South 4.6 mph - N/A   Partly Cloudy
1:53 AM 54.0 °F 46.0 °F 75% 30.01 in 10.0 mi WSW 3.5 mph - 0.00 in Rain Light Rain
2:53 AM 51.1 °F 46.0 °F 83% 30.01 in 10.0 mi South 4.6 mph - 0.00 in   Overcast
3:53 AM 53.1 °F 46.0 °F 77% 30.00 in 10.0 mi Variable 4.6 mph - N/A   Overcast
4:53 AM 51.1 °F 46.0 °F 83% 29.97 in 10.0 mi Calm Calm - 0.00 in   Scattered Clouds
5:53 AM 51.1 °F 46.9 °F 86% 29.99 in 10.0 mi Calm Calm - 0.00 in Rain Light Rain
6:53 AM 51.1 °F 46.0 °F 83% 30.04 in 10.0 mi SSW 12.7 mph - 0.00 in Rain Light Rain
7:53 AM 48.9 °F 45.0 °F 86% 30.08 in 6.0 mi SSW 6.9 mph - 0.12 in Rain Rain
8:53 AM 48.0 °F 45.0 °F 89% 30.09 in 4.0 mi SSE 4.6 mph - 0.11 in Rain Light Rain
9:01 AM 48.2 °F 44.6 °F 87% 30.07 in 4.0 mi SSE 3.5 mph - 0.01 in Rain Light Rain
9:23 AM 48.2 °F 46.4 °F 93% 30.06 in 8.0 mi Calm Calm - 0.02 in Rain Light Rain
9:53 AM 48.9 °F 45.0 °F 86% 30.09 in 10.0 mi Calm Calm - 0.03 in Rain Light Rain
10:53 AM 50.0 °F 44.1 °F 80% 30.09 in 10.0 mi SSW 9.2 mph - 0.00 in Rain Light Rain
11:53 AM 50.0 °F 45.0 °F 83% 30.11 in 10.0 mi SSW 5.8 mph - 0.01 in Rain Light Rain
12:53 PM 51.1 °F 44.1 °F 77% 30.09 in 10.0 mi SSW 3.5 mph - 0.01 in   Mostly Cloudy
1:53 PM 54.0 °F 44.1 °F 69% 30.08 in 10.0 mi SSE 4.6 mph - N/A   Mostly Cloudy
2:53 PM 55.0 °F 43.0 °F 64% 30.05 in 10.0 mi Calm Calm - N/A   Partly Cloudy
3:53 PM 55.9 °F 44.1 °F 64% 30.03 in 10.0 mi West 5.8 mph - N/A   Scattered Clouds
5:53 PM 55.9 °F 44.1 °F 64% 30.01 in 10.0 mi Calm Calm - N/A   Mostly Cloudy
6:53 PM 55.0 °F 43.0 °F 64% 30.02 in 10.0 mi SW 3.5 mph - N/A   Overcast
7:53 PM 53.1 °F 45.0 °F 74% 30.02 in 10.0 mi SW 3.5 mph - 0.00 in   Overcast
8:53 PM 51.1 °F 46.0 °F 83% 30.04 in 10.0 mi SW 3.5 mph - N/A   Mostly Cloudy
9:53 PM 51.1 °F 43.0 °F 74% 30.05 in 10.0 mi Calm Calm - N/A   Overcast
11:53 PM 50.0 °F 44.1 °F 80% 30.05 in 10.0 mi Calm Calm - 0.00 in Rain Light Rain